Location: Hamayl? Da??
(36.7028°N, 30.1716°E)
Time: 13:05:02
(UTC+00:00)

Meteor 1-11 Rocket - Pass Details

Date: 04 August 2024
Orbit: 829 x 916 km, 81.2° (Epoch: 11 September)

Event Time Altitude Azimuth Distance (km) Brightness Sun altitude
Exits shadow 23:23:13 51° 344° (NNW) 1,144 4.5 -33.3°
Drops below altitude 10° 23:27:39 10° 4° (N) 2,599 7.0 -33.0°
Sets 23:30:08 0° 7° (N) 3,535 7.9 -32.8°
